INTELSAT 506

operational
NORAD ID: 14077 Int'l Des: 1983-047 Owner: INTEL Country: I-INT
HEOCIRCULAR

INTELSAT 506について

説明を読み込み中...

リアルタイム位置

3D地球を読み込み中...

次回通過

高度履歴

Altitude vs Time

uPlot chart will show altitude changes over time

軌道要素

1 14077U 83047A 26062.14954023 -.00000258 00000-0 00000-0 0 9991
2 14077 12.5741 334.3381 0041143 350.6797 204.3205 0.99161697123039
Epoch: Mar 3, 2026 • Age: 24 hours

現在のステータス

高度 36239.9 km
速度 3.05 km/s
衛星直下点 9.02°N, 47.76°W
打ち上げ日 May 19, 1983
運用期間 42.7 years
タイプ communications

技術仕様

分類 Payload
質量 1004.00 kg
乾燥質量 775.00 kg
総質量 1928.00 kg
長さ 6.40 m
直径 2.00 m
スパン 15.60 m
形状 Box + 2 Pan
製造者 FORDA
バスタイプ FS INTELSAT 5
フェーズステータス Renamed
所有者/国 INTEL/I-INT

大規模コンステレーション

Loading constellations...